Regional Weather Roundup
Issued by NWS Jackson, KY

Home | Current Version | Previous Version | Graphics & Text | Print | Product List | Glossary On
Versions: 1 2 3 4 5 6 7 8 9 10 11 12 13 14 15 16 17 18 19 20 21 22 23 24 25 26 27 28 29 30 31 32 33 34 35 36 37 38 39 40 41 42 43 44 45 46 47 48 49 50
000
ASUS43 KJKL 281010
RWRJKL

EAST KENTUCKY HOURLY WEATHER ROUNDUP
NATIONAL WEATHER SERVICE JACKSON KY
500 AM EST SAT FEB 28 2015

NOTE: "FAIR" INDICATES FEW OR NO CLOUDS BELOW 12,000 FEET WITH
NO SIGNIFICANT WEATHER AND/OR OBSTRUCTIONS TO VISIBILITY.

* THESE REPORTS ARE NOT UNDER NWS QUALITY CONTROL AND MAY NOT
  REPORT WEATHER SUCH AS PRECIPITATION AND FOG.

KYZ079-080-083-085-087-088-110-112-115-119-120-281100
...EASTERN KENTUCKY...

CITY           SKY/WX    TMP DP  RH WIND       PRES   REMARKS
JACKSON        CLOUDY    18   6  59 VRB3      30.59R
LONDON         MOCLDY    21   7  54 NE6       30.57S WCI  13
SOMERSET*      MOCLDY    19   9  63 E5        30.60S WCI  13
MONTICELLO*    CLOUDY    21  10  62 E7        30.60R WCI  12
MIDDLESBORO*   CLOUDY    21  14  73 CALM      30.57S
HAZARD APT*    CLOUDY    21  10  63 CALM      30.60R
BLACK MTN*       N/A     19  -4  35 S5          N/A  WCI  13
PIKEVILLE APT* CLOUDY    18   7  62 E5        30.60R WCI  11
BIG SANDY*     CLOUDY    18   8  64 E5        30.62S WCI  11
MOREHEAD APT*  CLOUDY    16   0  48 E6        30.66S WCI   7
$$

KYZ035-036-041-042-044-050-067-078-099-281100
...CENTRAL KENTUCKY...

CITY           SKY/WX    TMP DP  RH WIND       PRES   REMARKS
MT STERLING*   CLOUDY    18   5  57 E9        30.64S WCI   6
FLEMING/MASON* PTCLDY    12   3  67 E7        30.67S WCI   2
DANVILLE*      CLOUDY    18   9  68 E8        30.60R WCI   7
RICHMOND*      CLOUDY    18   7  62 NE6       30.60S WCI   9
LEXINGTON      CLOUDY    16   4  59 E12       30.61F WCI   3
FRANKFORT        N/A     16   3  56 E8        30.62F WCI   5
$$

KYZ091>093-OHZ055-061-077-WVZ005-015-034-035-042-281100
...SOUTHERN OHIO/WEST VIRGINIA...

CITY           SKY/WX    TMP DP  RH WIND       PRES   REMARKS
COVINGTON      CLOUDY    12   0  58 E3        30.66R
COLUMBUS       MOCLDY     0  -6  76 NE3       30.70R
DAYTON         PTCLDY     6  -2  69 E5        30.67S WCI  -3
WILMINGTON     PTCLDY     5  -5  63 E6        30.65S WCI  -6
HUNTINGTON     CLOUDY    14   3  61 E6        30.67R WCI   5
CHARLESTON     MOCLDY    16   5  62 E3        30.67R
PINEVILLE*     MOCLDY    12  10  91 MISG      30.63S
BECKLEY        CLOUDY     9   3  77 CALM      30.53R
BLUEFIELD      PTCLDY    11   2  67 E5        30.49R WCI   3
$$

VAZ002-007-008-TNZ017-027-036-066-071-281100
...SOUTHWEST VIRGINIA/EAST TENNESSEE...

CITY           SKY/WX    TMP DP  RH WIND       PRES   REMARKS
WISE*          CLOUDY    14   7  73 NE3       30.48S
JONESVILLE*    CLOUDY    19  10  68 E3        30.57S
ABINGDON*      MOCLDY    19  10  67 E7        30.51R WCI  10
BRISTOL        PTCLDY    17  12  80 CALM      30.55R
KNOXVILLE      MOCLDY    25  15  66 NE9       30.53S WCI  15
OAK RIDGE      MOCLDY    27  12  53 VRB7      30.55F WCI  19
CROSSVILLE     CLOUDY    21  11  65 NE6       30.47S WCI  13
NASHVILLE      CLOUDY    25   9  50 NE8       30.56S WCI  16
$$

...KEY TO REMARKS...
VSB - VISIBILITY IN MILES
WCI - WIND CHILL INDEX
HX  - HEAT INDEX

$$



USA.gov is the U.S. government's official web portal to all federal, state and local government web resources and services.